DELTA 1 DEB, 10214

Orbit data source: Space-Track

DELTA 1 DEB, 10214 is space debris in LEO originally from a launch on Thu, 14 Jul 1977 UTC launched from the Air Force Eastern Test Range (AFETR). Debris objects in space refer to the collection of defunct objects orbiting the Earth. Examples of debris include non-operational satellites, rocket bodies, and fragments generated from explosions, collisions, or faulty payload assembly.

Loading next visibility...
Identifier
10214, 1977-065AT
Orbit
LEO
Country
Flag of USUS
Related business
Manufacturer
Unknown
Mission
Spacecraft
Bus & Motor
Unknown
Mass
Unknown
Launch date (UTC)
1977-07-14 (48 years ago)
Launch vehicle
Unknown
Launch site
Air Force Eastern Test Range (AFETR)
Object type
Payload
Rocket body
Debris
Shape & HBR
Unknown shape, 0.1 m
Radar Cross Section
Medium (>0.1 m² and <1 m²)

Expand to show TLE details & history
Last TLE update: 20 hours ago

TLE from 20 hours ago
0 DELTA 1 DEB
1 10214U 77065AT  25297.00173466  .00002650  00000-0  90972-3 0  9998
2 10214  28.8766  45.1196 0508582  87.8533 278.0160 13.79770433320569
Epoch: 2025-10-24T00:02Z
TLE epoch observation values (Epoch: 2025-10-24T00:02:29.874Z)
Latitude
0.00001°
Longitude
11.84225°
Altitude
929.822 km
Speed
7.406 km/s
True Right ascension
03h 00m 28s
True Declination
0° 00' 00"
Sunlit
Object was in full shadow at epoch
Visualization orbit readout
Latitude
Unknown
Longitude
Unknown
Altitude
Unknown
Speed
Unknown
Apparent Right ascension
Unknown
Apparent Declination
Unknown
Sunlit
N/A
Visualization observer readout
Local Sidereal Time
15:07:35
Azimuth
Unknown
Elevation
Unknown
Doppler factor
Unknown
Orbital elements
Apogee altitude
1,342.265 km
Perigee altitude
594.979 km
Semi-major axis
7,346.759 km
Eccentricity
0.05086
Inclination
28.8766°
RAAN
45.1196°
Arg. of periapsis
87.8533°
True anomaly
272.20342°
Mean anomaly
278.016°
Eccentric anomaly
275.11364°
Mean motion
3.44667 °/min
Orbital period
104.45 mins
BSTAR
0.00090972
Loading maneuver chart data...
Computing Atmospheric mass density...
Loading historical data...
Loading historical data...
Loading historical data...
Loading historical data...
Loading historical data...
Loading historical data...
Loading historical data...

Documentation

Showing up to 5 results
|